Le nostre stazioni meteo in Italia

Pubblicità
Il mio iltempo24.it
Siracusa, Italia (16464): Temperatura & dewpoint: 21.02.2017 23:00:00 - 27.02.2017 23:00:00 (CET)Siracusa, Italia (16464): velocità del vento: 21.02.2017 23:00:00 - 27.02.2017 23:00:00 (CET)Siracusa, Italia (16464): direzione del vento: 21.02.2017 23:00:00 - 27.02.2017 23:00:00 (CET)Siracusa, Italia (16464): reduced air pressure: 21.02.2017 23:00:00 - 27.02.2017 23:00:00 (CET)Siracusa, Italia (16464): precipitazioni: 21.02.2017 23:00:00 - 27.02.2017 23:00:00 (CET)
Data & Tempo tt [°C] td [°C] ff [km/h] ff [kn] dd ppp [hPa] rr [mm]
27.02.2017 23:00:00 - - - - - - -
27.02.2017 22:00:00 15,2 13,3 5 3 NE 1019,2 -
27.02.2017 21:00:00 15,3 13,3 9 5 ENE 1019,0 -
27.02.2017 20:00:00 15,4 13,2 8 4 ENE 1018,5 -
27.02.2017 19:00:00 15,6 13,4 11 6 NE 1018,2 0,0
27.02.2017 18:00:00 15,6 13,0 13 7 NE 1017,8 -
27.02.2017 17:00:00 16,2 13,2 11 6 NE 1017,3 -
27.02.2017 16:00:00 16,6 13,4 15 8 NE 1017,2 -
27.02.2017 15:00:00 16,7 13,5 13 7 NE 1016,9 -
27.02.2017 14:00:00 17,0 13,6 15 8 NE 1016,7 -
27.02.2017 13:00:00 16,9 13,9 15 8 NE 1016,7 0,0
27.02.2017 12:00:00 16,8 14,6 16 9 NE 1016,8 -
27.02.2017 11:00:00 16,2 14,1 13 7 NE 1016,8 -
27.02.2017 10:00:00 15,6 13,2 16 9 NE 1016,4 -
27.02.2017 09:00:00 15,6 13,2 16 9 NE 1015,9 -
27.02.2017 08:00:00 15,4 13,2 16 9 NE 1015,1 -
27.02.2017 07:00:00 15,1 13,1 22 12 NNE 1014,1 0,0
27.02.2017 06:00:00 14,8 12,6 24 13 NNE 1013,6 -
27.02.2017 05:00:00 14,7 12,4 26 14 NNE 1013,1 -
27.02.2017 04:00:00 14,9 11,8 24 13 NNE 1013,0 -
27.02.2017 03:00:00 14,8 11,5 24 13 NNE 1013,1 -
27.02.2017 02:00:00 15,1 11,6 28 15 NNE 1013,4 -
27.02.2017 01:00:00 14,3 11,6 21 11 N 1013,5 0,0
27.02.2017 00:00:00 14,9 11,6 24 13 NNE 1013,6 -
26.02.2017 23:00:00 14,5 11,4 24 13 N 1013,9 -
26.02.2017 22:00:00 14,1 10,5 18 10 N 1014,4 -
26.02.2017 21:00:00 14,3 10,9 22 12 N 1014,7 -
26.02.2017 20:00:00 13,8 11,3 22 12 N 1014,8 -
26.02.2017 19:00:00 13,6 11,8 22 12 N 1014,5 0,0
26.02.2017 18:00:00 13,8 11,5 16 9 NNE 1014,7 -
26.02.2017 17:00:00 14,0 11,8 15 8 NNE 1014,6 -
26.02.2017 16:00:00 14,3 12,1 13 7 NNE 1014,5 -
26.02.2017 15:00:00 14,2 11,3 9 5 E 1014,7 -
26.02.2017 14:00:00 14,8 12,3 11 6 NE 1015,1 -
26.02.2017 13:00:00 15,1 12,6 15 8 NE 1015,7 0,0
26.02.2017 12:00:00 14,9 12,4 16 9 NE 1016,5 -
26.02.2017 11:00:00 14,8 12,3 16 9 NE 1016,5 -
26.02.2017 10:00:00 14,7 12,4 15 8 NE 1016,1 -
26.02.2017 09:00:00 14,8 11,9 18 10 NE 1016,3 -
26.02.2017 08:00:00 15,0 11,9 13 7 NE 1016,1 -
26.02.2017 07:00:00 14,9 11,8 11 6 NNE 1015,5 0,0
26.02.2017 06:00:00 15,1 12,2 8 4 NNE 1015,3 -
26.02.2017 05:00:00 15,0 11,7 13 7 NNE 1015,0 -
26.02.2017 04:00:00 14,1 10,7 9 5 N 1014,7 -
26.02.2017 03:00:00 14,2 10,4 9 5 N 1014,9 -
26.02.2017 02:00:00 14,8 10,6 13 7 N 1015,3 -
26.02.2017 01:00:00 15,3 9,8 16 9 N 1015,3 0,0
26.02.2017 00:00:00 15,5 10,4 15 8 N 1015,2 -
25.02.2017 23:00:00 15,5 10,8 5 3 N 1015,8 -
25.02.2017 22:00:00 16,3 11,2 13 7 N 1015,4 -
25.02.2017 21:00:00 16,2 12,3 9 5 N 1015,3 -
25.02.2017 20:00:00 16,0 12,3 2 1 N 1014,0 -
25.02.2017 19:00:00 16,3 12,8 4 2 NO 1013,2 0,0
25.02.2017 18:00:00 16,6 12,7 8 4 N 1012,2 -
25.02.2017 17:00:00 17,6 12,5 8 4 NE 1011,7 -
25.02.2017 16:00:00 18,6 12,5 9 5 NE 1011,1 -
25.02.2017 15:00:00 18,9 13,2 9 5 ENE 1010,7 -
25.02.2017 14:00:00 18,8 13,6 16 9 N 1010,5 -
25.02.2017 13:00:00 18,2 13,4 16 9 N 1010,8 0,0
25.02.2017 12:00:00 17,4 13,8 16 9 N 1011,3 -
25.02.2017 11:00:00 16,6 14,0 18 10 N 1011,5 -
25.02.2017 10:00:00 16,3 14,1 13 7 N 1011,3 -
25.02.2017 09:00:00 15,1 13,6 9 5 NNO 1011,6 -
25.02.2017 08:00:00 13,8 12,2 8 4 E 1009,9 -
25.02.2017 07:00:00 14,0 12,4 4 2 OSO 1011,4 0,0
25.02.2017 06:00:00 14,8 13,3 5 3 O 1011,3 -
25.02.2017 05:00:00 15,0 13,3 13 7 N 1012,6 -
25.02.2017 04:00:00 14,9 13,0 15 8 N 1011,7 -
25.02.2017 03:00:00 13,6 11,1 8 4 O 1013,9 -
25.02.2017 02:00:00 15,0 13,1 4 2 E 1012,4 -
25.02.2017 01:00:00 14,5 12,3 4 2 ONO 1014,0 0,0
25.02.2017 00:00:00 15,2 13,0 9 5 SSE 1014,1 -
24.02.2017 23:00:00 15,1 12,6 9 5 SE 1015,0 -
24.02.2017 22:00:00 15,4 11,7 13 7 SSE 1015,5 -
24.02.2017 21:00:00 15,9 12,2 16 9 S 1016,1 -
24.02.2017 20:00:00 15,9 11,8 15 8 S 1015,9 -
24.02.2017 19:00:00 16,5 11,4 13 7 SSO 1015,7 0,0
24.02.2017 18:00:00 16,6 11,7 11 6 S 1015,5 -
24.02.2017 17:00:00 17,4 11,6 16 9 SSO 1015,4 -
24.02.2017 16:00:00 16,8 12,3 21 11 S 1015,3 -
24.02.2017 15:00:00 17,5 12,6 28 15 S 1015,7 -
24.02.2017 14:00:00 17,5 12,4 29 16 S 1016,2 -
24.02.2017 13:00:00 17,7 12,3 28 15 S 1016,8 0,0
24.02.2017 12:00:00 17,8 11,8 28 15 SSO 1017,6 -
24.02.2017 11:00:00 16,7 10,9 21 11 SSO 1018,3 -
24.02.2017 10:00:00 14,9 9,6 2 1 SSO 1018,5 -
24.02.2017 09:00:00 11,0 8,7 0 0 N 1018,5 -
24.02.2017 08:00:00 7,8 5,1 0 0 N 1018,4 -
24.02.2017 07:00:00 6,6 3,9 5 3 ONO 1018,3 0,0
24.02.2017 06:00:00 6,8 4,1 2 1 OSO 1018,5 -
24.02.2017 05:00:00 7,1 4,4 5 3 NO 1018,6 -
24.02.2017 04:00:00 7,4 4,3 2 1 O 1018,6 -
24.02.2017 03:00:00 7,8 4,7 2 1 ONO 1019,1 -
24.02.2017 02:00:00 8,2 4,4 4 2 NNO 1019,8 -
24.02.2017 01:00:00 10,6 7,6 4 2 NNO 1019,7 0,0
24.02.2017 00:00:00 9,7 6,0 2 1 ONO 1020,1 -
23.02.2017 23:00:00 10,0 5,9 2 1 OSO 1020,4 -
23.02.2017 22:00:00 10,9 7,2 2 1 ONO 1020,5 -
23.02.2017 21:00:00 11,1 6,2 2 1 O 1020,7 -
23.02.2017 20:00:00 14,1 10,9 2 1 OSO 1020,3 -
23.02.2017 19:00:00 14,9 11,3 5 3 SSO 1020,2 0,0
23.02.2017 18:00:00 15,6 10,5 11 6 SSO 1019,8 -
23.02.2017 17:00:00 16,4 9,5 8 4 SE 1019,5 -
23.02.2017 16:00:00 16,4 8,6 11 6 SE 1020,0 -
23.02.2017 15:00:00 16,7 9,1 9 5 SSE 1020,1 -
23.02.2017 14:00:00 15,4 9,0 11 6 E 1020,4 -
23.02.2017 13:00:00 15,6 8,8 9 5 E 1021,0 0,0
23.02.2017 12:00:00 16,4 8,3 11 6 E 1021,7 -
23.02.2017 11:00:00 17,5 8,0 4 2 SSE 1021,9 -
23.02.2017 10:00:00 14,9 9,0 5 3 SSO 1021,8 -
23.02.2017 09:00:00 12,0 9,4 2 1 O 1021,7 -
23.02.2017 08:00:00 8,2 5,3 2 1 ONO 1021,7 -
23.02.2017 07:00:00 7,5 4,6 0 0 N 1021,1 0,0
23.02.2017 06:00:00 8,1 5,2 4 2 NNO 1020,9 -
23.02.2017 05:00:00 7,9 4,8 4 2 NNO 1020,8 -
23.02.2017 04:00:00 8,7 5,9 4 2 ONO 1020,5 -
23.02.2017 03:00:00 7,8 4,5 5 3 ONO 1020,9 -
23.02.2017 02:00:00 7,8 4,2 2 1 O 1021,4 -
23.02.2017 01:00:00 8,1 3,7 0 0 N 1021,7 0,0
23.02.2017 00:00:00 9,1 5,2 4 2 NNO 1021,8 -
22.02.2017 23:00:00 9,2 4,9 4 2 ONO 1021,9 -
22.02.2017 22:00:00 9,5 5,0 0 0 N 1022,0 -
22.02.2017 21:00:00 9,8 4,9 4 2 NO 1022,0 -
22.02.2017 20:00:00 11,5 5,7 4 2 ONO 1021,6 -
22.02.2017 19:00:00 13,4 6,9 2 1 SE 1021,4 0,0
22.02.2017 18:00:00 14,6 7,6 5 3 SSO 1021,1 -
22.02.2017 17:00:00 15,5 7,7 5 3 SSE 1021,3 -
22.02.2017 16:00:00 15,8 7,2 8 4 SE 1021,4 -
22.02.2017 15:00:00 15,4 8,1 11 6 SSE 1021,9 -
22.02.2017 14:00:00 15,4 7,4 9 5 SE 1022,2 -
22.02.2017 13:00:00 14,9 6,1 8 4 OSO 1022,7 0,0
22.02.2017 12:00:00 14,2 6,2 9 5 E 1023,2 -
22.02.2017 11:00:00 14,3 6,1 8 4 E 1023,4 -
22.02.2017 10:00:00 14,0 7,5 4 2 S 1023,5 -
22.02.2017 09:00:00 10,4 7,2 2 1 O 1023,3 -
22.02.2017 08:00:00 5,9 2,7 4 2 ONO 1023,3 -
22.02.2017 07:00:00 4,5 0,8 2 1 O 1023,0 0,0
22.02.2017 06:00:00 4,9 1,2 2 1 NO 1022,8 -
22.02.2017 05:00:00 5,3 1,5 4 2 O 1022,7 -
22.02.2017 04:00:00 5,6 1,8 2 1 OSO 1022,9 -
22.02.2017 03:00:00 5,9 2,1 4 2 NNO 1023,1 -
22.02.2017 02:00:00 6,5 2,7 4 2 ONO 1023,3 -
22.02.2017 01:00:00 6,4 2,2 4 2 O 1023,4 0,0
22.02.2017 00:00:00 7,0 3,2 2 1 ONO 1022,9 -
21.02.2017 23:00:00 7,5 2,7 4 2 O 1022,9 -

tt = Temperatura
td = dewpoint
ff = velocità del vento
dd = direzione del vento
ppp = reduced air pressure
rr = precipitazioni

Stazioni seguenti

WeatherPro
AMSI
MeteoEarth